Weather History for Akron, OH

Change the Weather History Date:

Wednesday, October 24, 2012

  Actual Average (KCAK) Record (KCAK)
Temperature  
Mean Temperature 66 °F 49 °F  
Max Temperature 75 °F 58 °F 80 °F (1963)
Min Temperature 57 °F 40 °F 22 °F (1969)
Degree Days  
Heating Degree Days 0 16  
Month to date heating degree days 297  
Since 1 July heating degree days 436  
Cooling Degree Days 1 0  
Month to date cooling degree days 3  
Year to date cooling degree days 649  
Growing Degree Days 16 (Base 50)    
Moisture  
Dew Point 53 °F    
Average Humidity 67    
Maximum Humidity 87    
Minimum Humidity 47    
Precipitation  
Precipitation 0.02 in 0.09 in 0.71 in (2005)
Month to date precipitation 2.18  
Year to date precipitation 32.83  
Snow  
Snow 0.00 in 0.00 in - ()
Month to date snowfall 0.2  
Since 1 July snowfall 0.2  
Since 1 September snowfall 0.2  
Snow Depth -    
Sea Level Pressure  
Sea Level Pressure 30.06 in    
Wind  
Wind Speed 5 mph (SSW)    
Max Wind Speed 12 mph    
Max Gust Speed -    
Visibility 10 miles    
Events Rain    
T = Trace of Precipitation, MM = Missing Value Source: NWS Daily Summary

Daily Weather History Graph

Daily Weather History Graph

Search for Another Location

Airport:

Trip Planner

Search our weather history database for the weather conditions in past years. The results will help you decide how hot, cold, wet, or windy it might be!

Date:

Astronomy

Oct. 24, 2012 Rise Set
Actual Time 7:47 AM EDT 6:31 PM EDT
Civil Twilight 7:19 AM EDT 6:59 PM EDT
Nautical Twilight 6:47 AM EDT 7:31 PM EDT
Astronomical Twilight 6:15 AM EDT 8:03 PM EDT
Moon 3:48 PM EDT (10/24) 2:39 AM EDT (10/24)
Length of Visible Light 11h 39m
Length of Day
10h 43m
Waxing Gibbous, 76% of the Moon is Illuminated
Oct 24
Waxing Gibbous
Oct 29
Full
Nov 6
Last Quarter
Nov 13
New
Nov 20
First Quarter

Hourly Weather History & Observations

Time (EDT) Temp. Dew Point Humidity Pressure Visibility Wind Dir Wind Speed Gust Speed Precip Events Conditions
12:54 AM 62.1 °F 57.9 °F 86% 30.04 in 10.0 mi Calm Calm - N/A   Overcast
1:54 AM 62.1 °F 52.0 °F 70% 30.04 in 10.0 mi SSW 4.6 mph - N/A   Mostly Cloudy
2:54 AM 63.0 °F 50.0 °F 63% 30.06 in 10.0 mi WSW 6.9 mph - N/A   Overcast
3:54 AM 63.0 °F 50.0 °F 63% 30.06 in 10.0 mi WSW 4.6 mph - N/A   Overcast
4:54 AM 62.1 °F 52.0 °F 70% 30.07 in 10.0 mi WSW 6.9 mph - N/A   Overcast
5:54 AM 63.0 °F 53.1 °F 70% 30.08 in 10.0 mi SW 6.9 mph - N/A   Overcast
6:54 AM 60.1 °F 54.0 °F 80% 30.09 in 8.0 mi South 4.6 mph - 0.00 in Rain Light Rain
7:54 AM 59.0 °F 55.0 °F 87% 30.09 in 10.0 mi South 3.5 mph - 0.01 in   Overcast
8:54 AM 61.0 °F 54.0 °F 78% 30.10 in 10.0 mi SSW 8.1 mph - N/A   Overcast
9:54 AM 61.0 °F 55.9 °F 83% 30.11 in 10.0 mi SSW 6.9 mph - 0.01 in   Overcast
10:54 AM 64.9 °F 55.9 °F 73% 30.09 in 10.0 mi SSW 10.4 mph - N/A   Scattered Clouds
11:54 AM 70.0 °F 55.0 °F 59% 30.08 in 10.0 mi SW 11.5 mph - N/A   Clear
12:54 PM 72.0 °F 55.0 °F 55% 30.06 in 10.0 mi SSW 8.1 mph - N/A   Clear
1:54 PM 75.0 °F 54.0 °F 48% 30.04 in 10.0 mi SW 11.5 mph - N/A   Partly Cloudy
2:54 PM 75.0 °F 54.0 °F 48% 30.04 in 10.0 mi SW 10.4 mph - N/A   Clear
3:54 PM 75.9 °F 55.0 °F 48% 30.03 in 10.0 mi SSW 10.4 mph - N/A   Clear
4:54 PM 75.2 °F 53.6 °F 47% 30.03 in 10.0 mi SSW 10.4 mph - N/A   Clear
5:54 PM 73.0 °F 53.1 °F 49% 30.02 in 10.0 mi SSW 9.2 mph - N/A   Clear
6:54 PM 70.0 °F 53.1 °F 55% 30.03 in 10.0 mi South 4.6 mph - N/A   Clear
7:54 PM 66.9 °F 52.0 °F 59% 30.05 in 10.0 mi South 3.5 mph - N/A   Clear
8:54 PM 62.1 °F 52.0 °F 70% 30.05 in 10.0 mi Calm Calm - N/A   Clear
9:54 PM 57.9 °F 51.1 °F 78% 30.07 in 10.0 mi Calm Calm - N/A   Clear
10:54 PM 57.0 °F 51.1 °F 81% 30.07 in 10.0 mi Calm Calm - N/A   Partly Cloudy
11:54 PM 57.0 °F 51.1 °F 81% 30.07 in 10.0 mi Calm Calm - N/A   Clear